EN

Hourly Weather Abaza

Today, 14 June, Monday

Time Temperature Precipitation Wind Pressure Humidity
00:00 +8°C° 0 mm 2 mps 718 mmHg 94%
01:00 +8°C° 0.1 mm 2 mps 718 mmHg 94%
02:00 +8°C° 0.1 mm 2 mps 718 mmHg 94%
03:00 +8°C° 0.1 mm 2 mps 718 mmHg 94%
04:00 +10°C° 0.8 mm 1 mps 718 mmHg 95%
05:00 +10°C° 0.8 mm 1 mps 718 mmHg 95%
06:00 +10°C° 0 mm 1 mps 718 mmHg 96%
07:00 +11°C° 0.6 mm 1 mps 718 mmHg 95%
08:00 +11°C° 0.6 mm 1 mps 718 mmHg 94%
09:00 +10°C° 0.6 mm 2 mps 718 mmHg 93%
10:00 +12°C° 0.1 mm 2 mps 719 mmHg 92%
11:00 +12°C° 0.1 mm 2 mps 719 mmHg 91%
12:00 +12°C° 0 mm 2 mps 719 mmHg 91%
13:00 +12°C° 0.2 mm 2 mps 719 mmHg 92%
14:00 +12°C° 0.2 mm 1 mps 719 mmHg 93%
15:00 +12°C° 0.2 mm 1 mps 719 mmHg 94%
16:00 +12°C° 0 mm 1 mps 720 mmHg 92%
17:00 +13°C° 0 mm 1 mps 720 mmHg 89%
18:00 +13°C° 0 mm 1 mps 720 mmHg 87%
19:00 +12°C° 0 mm 1 mps 720 mmHg 89%
20:00 +12°C° 0 mm 1 mps 721 mmHg 91%
21:00 +11°C° 0 mm 1 mps 721 mmHg 93%
22:00 +11°C° 0.1 mm 1 mps 721 mmHg 93%
23:00 +11°C° 0.1 mm 1 mps 721 mmHg 94%

Tomorrow, 15 June, Tuesday

Time Temperature Precipitation Wind Pressure Humidity
00:00 +11°C° 0.1 mm 1 mps 721 mmHg 95%
01:00 +10°C° 0.1 mm 1 mps 721 mmHg 96%
02:00 +10°C° 0.1 mm 1 mps 721 mmHg 96%
03:00 +10°C° 0.1 mm 1 mps 721 mmHg 96%
04:00 +10°C° 0 mm 0 mps 721 mmHg 95%
05:00 +10°C° 0 mm 0 mps 721 mmHg 94%
06:00 +11°C° 0 mm 0 mps 721 mmHg 92%
07:00 +13°C° 0 mm 0 mps 721 mmHg 80%
08:00 +15°C° 0 mm 0 mps 721 mmHg 67%
09:00 +17°C° 0 mm 0 mps 721 mmHg 55%
10:00 +20°C° 0 mm 1 mps 721 mmHg 51%
11:00 +20°C° 0 mm 1 mps 720 mmHg 47%
12:00 +20°C° 0 mm 2 mps 720 mmHg 42%
13:00 +20°C° 0 mm 2 mps 720 mmHg 43%
14:00 +20°C° 0 mm 2 mps 720 mmHg 43%
15:00 +20°C° 0 mm 2 mps 719 mmHg 43%
16:00 +21°C° 0 mm 1 mps 719 mmHg 47%
17:00 +21°C° 0 mm 1 mps 719 mmHg 50%
18:00 +19°C° 0 mm 0 mps 719 mmHg 54%
19:00 +19°C° 0 mm 1 mps 719 mmHg 60%
20:00 +16°C° 0 mm 1 mps 719 mmHg 66%
21:00 +14°C° 0 mm 1 mps 719 mmHg 72%
22:00 +13°C° 0 mm 1 mps 719 mmHg 74%
23:00 +13°C° 0 mm 1 mps 719 mmHg 76%

Day after tomorrow, 16 June, Wednesday

Time Temperature Precipitation Wind Pressure Humidity
00:00 +12°C° 0 mm 1 mps 719 mmHg 78%
01:00 +11°C° 0 mm 1 mps 719 mmHg 80%
02:00 +11°C° 0 mm 1 mps 719 mmHg 81%
03:00 +11°C° 0 mm 1 mps 719 mmHg 82%
04:00 +12°C° 0 mm 1 mps 719 mmHg 78%
05:00 +13°C° 0 mm 1 mps 719 mmHg 74%
06:00 +14°C° 0 mm 1 mps 719 mmHg 70%
07:00 +16°C° 0 mm 1 mps 719 mmHg 65%
08:00 +19°C° 0 mm 1 mps 719 mmHg 60%
09:00 +21°C° 0 mm 1 mps 719 mmHg 54%
10:00 +22°C° 0 mm 1 mps 719 mmHg 51%
11:00 +23°C° 0 mm 1 mps 719 mmHg 48%
12:00 +24°C° 0 mm 2 mps 719 mmHg 45%
13:00 +25°C° 0 mm 2 mps 718 mmHg 46%
14:00 +25°C° 0 mm 1 mps 718 mmHg 47%
15:00 +25°C° 0 mm 1 mps 718 mmHg 47%
16:00 +24°C° 0 mm 1 mps 718 mmHg 54%
17:00 +23°C° 0 mm 1 mps 717 mmHg 60%
18:00 +20°C° 0 mm 0 mps 717 mmHg 67%
19:00 +20°C° 0.1 mm 1 mps 717 mmHg 73%
20:00 +18°C° 0.1 mm 1 mps 717 mmHg 79%
21:00 +16°C° 0.1 mm 1 mps 717 mmHg 86%
22:00 +15°C° 0 mm 1 mps 717 mmHg 87%
23:00 +14°C° 0 mm 1 mps 718 mmHg 88%

17 June, Thursday

Time Temperature Precipitation Wind Pressure Humidity
00:00 +14°C° 0 mm 2 mps 718 mmHg 89%
01:00 +13°C° 0 mm 2 mps 717 mmHg 89%
02:00 +13°C° 0 mm 2 mps 717 mmHg 90%
03:00 +13°C° 0 mm 2 mps 717 mmHg 90%
04:00 +14°C° 0 mm 1 mps 717 mmHg 87%
05:00 +15°C° 0 mm 1 mps 717 mmHg 83%
06:00 +16°C° 0 mm 1 mps 717 mmHg 80%
07:00 +19°C° 0 mm 1 mps 717 mmHg 72%
08:00 +20°C° 0 mm 0 mps 717 mmHg 64%
09:00 +22°C° 0 mm 0 mps 717 mmHg 55%
10:00 +25°C° 0 mm 1 mps 716 mmHg 50%
11:00 +26°C° 0 mm 1 mps 716 mmHg 46%
12:00 +27°C° 0 mm 2 mps 716 mmHg 41%
13:00 +28°C° 0 mm 2 mps 715 mmHg 40%
14:00 +28°C° 0 mm 2 mps 715 mmHg 38%
15:00 +28°C° 0 mm 3 mps 715 mmHg 37%
16:00 +27°C° 0 mm 2 mps 714 mmHg 44%
17:00 +26°C° 0 mm 2 mps 714 mmHg 51%
18:00 +25°C° 0 mm 1 mps 714 mmHg 58%
19:00 +23°C° 0 mm 1 mps 714 mmHg 67%
20:00 +19°C° 0 mm 2 mps 714 mmHg 75%
21:00 +17°C° 0 mm 2 mps 714 mmHg 83%
22:00 +16°C° 0.1 mm 2 mps 714 mmHg 85%
23:00 +15°C° 0.1 mm 2 mps 714 mmHg 87%

18 June, Friday

Time Temperature Precipitation Wind Pressure Humidity
00:00 +15°C° 0.1 mm 2 mps 714 mmHg 89%
01:00 +14°C° 0.1 mm 2 mps 713 mmHg 89%
02:00 +14°C° 0.1 mm 2 mps 713 mmHg 89%
03:00 +14°C° 0.1 mm 2 mps 713 mmHg 89%
04:00 +15°C° 0 mm 1 mps 713 mmHg 86%
05:00 +16°C° 0 mm 1 mps 713 mmHg 83%
06:00 +18°C° 0 mm 1 mps 713 mmHg 80%
07:00 +19°C° 0.1 mm 2 mps 713 mmHg 72%
08:00 +21°C° 0.1 mm 2 mps 712 mmHg 63%
09:00 +25°C° 0.1 mm 2 mps 712 mmHg 54%
10:00 +24°C° 0.4 mm 3 mps 712 mmHg 58%
11:00 +24°C° 0.4 mm 3 mps 712 mmHg 61%
12:00 +23°C° 0.4 mm 4 mps 712 mmHg 65%
13:00 +23°C° 0.5 mm 4 mps 712 mmHg 65%
14:00 +23°C° 0.5 mm 4 mps 712 mmHg 65%
15:00 +23°C° 0.5 mm 4 mps 712 mmHg 66%
16:00 +23°C° 0.1 mm 4 mps 712 mmHg 65%
17:00 +24°C° 0.1 mm 3 mps 712 mmHg 64%
18:00 +22°C° 0.1 mm 3 mps 712 mmHg 64%
19:00 +20°C° 0 mm 2 mps 712 mmHg 70%
20:00 +18°C° 0 mm 2 mps 712 mmHg 77%
21:00 +16°C° 0 mm 1 mps 712 mmHg 83%
22:00 +16°C° 0 mm 2 mps 712 mmHg 86%
23:00 +15°C° 0 mm 2 mps 712 mmHg 88%

19 June, Saturday

Time Temperature Precipitation Wind Pressure Humidity
00:00 +14°C° 0 mm 2 mps 712 mmHg 91%
01:00 +14°C° 0 mm 2 mps 712 mmHg 92%
02:00 +13°C° 0 mm 2 mps 712 mmHg 93%
03:00 +13°C° 0 mm 2 mps 712 mmHg 94%
04:00 +14°C° 0 mm 1 mps 712 mmHg 88%
05:00 +16°C° 0 mm 1 mps 712 mmHg 83%
06:00 +18°C° 0 mm 1 mps 712 mmHg 77%
07:00 +20°C° 0 mm 1 mps 712 mmHg 69%
08:00 +22°C° 0 mm 1 mps 712 mmHg 61%
09:00 +25°C° 0 mm 1 mps 712 mmHg 53%
10:00 +26°C° 0 mm 1 mps 712 mmHg 49%
11:00 +27°C° 0 mm 2 mps 711 mmHg 45%
12:00 +28°C° 0 mm 2 mps 711 mmHg 40%
13:00 +28°C° 0 mm 2 mps 711 mmHg 41%
14:00 +28°C° 0 mm 3 mps 710 mmHg 41%
15:00 +28°C° 0 mm 3 mps 710 mmHg 41%
16:00 +27°C° 0 mm 2 mps 710 mmHg 50%
17:00 +26°C° 0 mm 2 mps 710 mmHg 58%
18:00 +24°C° 0 mm 2 mps 710 mmHg 66%
19:00 +22°C° 0.1 mm 1 mps 710 mmHg 74%
20:00 +20°C° 0.1 mm 1 mps 710 mmHg 82%
21:00 +16°C° 0.1 mm 0 mps 711 mmHg 90%
22:00 +15°C° 0 mm 0 mps 710 mmHg 92%
23:00 +15°C° 0 mm 0 mps 710 mmHg 93%
Show more